Location: Central Coast
(33.3208°S, 151.2336°E)
Time: 11:39:36
(UTC+11:00)

Vanguard 3 - Visible Passes

Search period start: 14 December 2017 00:00
Search period end: 24 December 2017 00:00
Orbit: 509 x 3263 km, 33.3° (Epoch: 13 December)

Date Brightness Start Highest point End Pass type
(mag) Time Alt. Az. Time Alt. Az. Time Alt. Az.
14 Dec 9.7 00:15:53 10° NW 00:31:17 70° NNE 00:51:19 10° ESE visible
14 Dec 10.0 02:29:53 10° W 02:48:50 90° N 03:07:46 10° E visible
14 Dec 10.0 04:46:26 10° W 05:06:48 81° NNW 05:22:09 10° ENE visible
14 Dec 10.2 20:55:29 10° NNE 21:02:50 18° NE 21:12:18 10° E visible
14 Dec 9.6 23:02:16 10° NW 23:15:15 54° NE 23:33:58 10° ESE visible
15 Dec 9.8 01:14:28 10° WNW 01:31:23 85° NNE 01:51:32 10° E visible
15 Dec 10.0 03:29:45 10° W 03:49:36 88° N 04:07:17 10° E visible
15 Dec 9.7 21:49:47 10° NNW 22:00:17 37° NE 22:15:48 10° E visible
15 Dec 9.6 23:59:57 10° WNW 00:14:30 74° NNE 00:34:39 10° ESE visible
16 Dec 10.0 02:13:45 10° W 02:32:03 90° S 02:51:32 10° E visible
16 Dec 10.0 04:29:50 10° WSW 04:50:01 78° NNW 05:06:14 10° ENE visible
16 Dec 10.0 20:38:56 10° N 20:46:16 20° NE 20:56:10 10° E visible
16 Dec 9.5 22:46:23 10° NW 22:58:33 58° NNE 23:17:08 10° ESE visible
17 Dec 9.8 00:58:33 10° WNW 01:14:38 87° N 01:35:02 10° E visible
17 Dec 10.0 03:13:27 10° W 03:32:48 87° N 03:51:12 10° ENE visible
17 Dec 9.5 21:33:50 10° NNW 21:43:41 40° NE 21:59:01 10° ESE visible
17 Dec 9.6 23:44:10 10° WNW 23:57:50 78° NNE 00:17:52 10° E visible
18 Dec 9.9 01:57:44 10° W 02:15:17 90° S 02:35:13 10° E visible
18 Dec 10.0 04:13:21 10° WSW 04:33:09 74° NNW 04:50:10 10° ENE visible
18 Dec 9.8 20:22:41 10° N 20:29:48 22° NE 20:39:52 10° E visible
18 Dec 9.3 22:30:38 10° NW 22:41:59 62° NNE 23:00:14 10° ESE visible
19 Dec 9.7 00:42:44 10° W 00:57:58 89° N 01:18:26 10° E visible
19 Dec 10.0 02:57:14 10° W 03:15:57 84° NNW 03:34:58 10° ENE visible
19 Dec 10.1 05:13:35 10° WSW 05:32:44 55° NNW 05:48:08 10° NE visible
19 Dec 9.3 21:18:01 10° NNW 21:27:13 43° NE 21:42:11 10° ESE visible
19 Dec 9.5 23:28:30 10° WNW 23:41:17 81° NNE 00:01:02 10° E visible
20 Dec 9.9 01:41:48 10° W 01:58:31 90° N 02:18:47 10° E visible
20 Dec 10.0 03:56:57 10° WSW 04:16:13 70° NNW 04:33:56 10° NE visible
20 Dec 9.2 22:15:01 10° NW 22:25:33 66° NNE 22:43:16 10° ESE visible
21 Dec 9.7 00:27:03 10° W 00:41:22 90° N 01:01:45 10° E visible
21 Dec 9.9 02:41:07 10° W 02:59:05 81° NNW 03:18:37 10° ENE visible
21 Dec 10.1 04:57:06 10° WSW 05:15:44 51° NW 05:31:46 10° NE visible
21 Dec 9.1 21:02:22 10° NW 21:10:52 46° NE 21:25:18 10° ESE visible
21 Dec 9.4 23:12:57 10° WNW 23:24:52 84° NNE 23:44:08 10° E visible
22 Dec 9.8 01:25:58 10° W 01:41:49 88° N 02:02:14 10° E visible
22 Dec 10.0 03:40:40 10° WSW 03:59:14 66° NNW 04:17:32 10° NE visible
22 Dec 9.0 21:59:31 10° WNW 22:09:16 70° NNE 22:26:18 10° ESE visible
23 Dec 9.6 00:11:26 10° W 00:24:51 90° S 00:44:59 10° E visible
23 Dec 9.9 02:25:06 10° W 02:42:13 78° NNW 03:02:05 10° ENE visible
23 Dec 10.2 04:40:46 10° WSW 04:58:42 47° NW 05:15:11 10° NNE visible
23 Dec 8.9 20:46:48 10° NW 20:54:41 50° NNE 21:08:27 10° ESE visible
23 Dec 9.3 22:57:29 10° WNW 23:08:33 86° N 23:27:13 10° E visible
